Terminal Aerodrome Forecast
Issued by NWS Melbourne, FL

Home | Current Version | Previous Version | Text Only | Print | Product List | Glossary On
Versions: 1 2 3 4 5 6 7 8 9 10 11 12
000
FTUS42 KMLB 211100
TAFVRB
TAF
KVRB 211128Z 2112/2212 VRB03KT P6SM FEW040 FEW250
     FM211600 09009KT P6SM SCT040 SCT250
     FM220000 12007KT P6SM FEW040 FEW250=

USA.gov is the U.S. government's official web portal to all federal, state and local government web resources and services.